STARLINK-2030 (47647 NORAD) Tracking and Keplerian Element Data

This shows tracking and keplerian element data for the satellite.

Feedback or suggestion? Click here.




ElementValue
Catalog47647
NameSTARLINK-2030
Epoch Orbit175
Epoch Day101.91668981
Epoch Year2021
RAAN199.6767
Inclination53.0524
Eccentricity0.0001427
Argument of Perigee61.3651
Mean Anonmoly116.7405
Mean Motion15.06406043
Decay Rate-0.00033658
L11 47647U 21012AD 21101.91668981 -.00033658 00000-0 -22510-2 0 9996
L22 47647 53.0524 199.6767 0001427 61.3651 116.7405 15.06406043 1756

Live tracking and technical data element details for STARLINK-2030 (NORAD 47647). STARLINK-2030 can be tracked NOW for your location showing map with azimuth and elevation plus other details from your city location.

Track the satellite on the map from your city or location and see movement details for azimuth, elevation, latitude, longitude, range, height, and movement on the map or in text.







IsCatalogInMostPopularTable: catalog: 47647, numindb: 13
Update: records affected: 1



GetName: 47647 STARLINK-2030

Hit Count: updated at: Tue, 13 Apr 2021 04:43:30 GMT